Wind_Speed
47 44 41 41 40 38 38 38 39 40 37 32 31 32 33 32 30 28 27 26 26 25 23 22 23 24 25 27 30 31 30 32 30 28 29 30 30 30
53 50 46 44 45 42 40 41 42 40 40 36 36 35 37 35 34 33 30 28 27 27 26 26 27 25 27 31 36 36 32 30 32 31 31 33 32 31
58 56 51 47 49 46 44 44 43 43 43 34 39 40 41 40 38 36 32 30 29 29 28 31 30 28 31 33 37 34 29 28 29 31 32 32 34 34
59 59 55 53 53 51 48 46 46 44 46 38 41 43 44 42 41 39 36 32 32 32 32 34 32 28 31 33 24 24 23 24 28 29 32 32 36 36
63 63 61 59 58 56 53 49 48 48 47 45 43 44 46 45 45 43 39 35 34 34 36 37 33 30 28 23 24 20 20 22 26 29 30 32 38 38
69 67 66 64 61 59 57 52 50 51 52 51 48 48 47 49 49 46 41 37 37 38 39 39 35 33 28 25 26 24 24 25 29 27 27 28 33 36
78 73 72 69 65 61 61 59 55 55 55 55 54 51 49 49 48 47 46 43 41 41 42 40 39 36 30 31 30 29 28 26 28 28 28 31 33 38
74 66 74 67 68 64 63 62 60 59 59 57 56 55 50 50 51 50 50 49 47 44 44 44 41 36 35 34 32 31 29 29 28 28 30 32 34 36
85 71 71 75 78 69 67 65 65 64 64 61 62 58 53 52 54 55 53 53 50 48 49 47 41 38 45 43 34 34 32 33 32 33 35 37 39 40
85 85 86 86 67 71 71 71 70 68 68 65 64 58 55 56 57 59 60 59 54 52 52 48 43 44 47 43 36 36 35 35 35 36 38 39 42 44
83 90 86 82 81 78 85 76 74 74 72 70 66 64 62 59 61 66 66 62 57 54 53 52 50 50 48 45 40 40 41 37 38 40 41 43 45 47
80 80 86 80 78 90 62 73 81 78 75 73 71 69 68 68 66 69 70 67 62 58 55 59 57 53 52 49 44 43 44 40 42 42 44 48 50 48
83 82 79 81 93 92 91 96 66 67 85 80 76 76 74 77 73 72 70 68 66 63 59 60 59 58 60 54 49 49 48 46 45 47 47 50 52 50
90 83 79 73 81 92 93 78 85 88 87 86 85 84 79 78 75 74 74 73 67 69 67 65 64 63 62 59 56 54 51 51 51 51 51 53 54 55
93 87 80 87 79 77 79 63 81 88 86 72 78 67 90 81 80 81 79 70 70 68 65 67 67 67 63 64 62 60 60 55 54 54 56 56 59 61
101 91 83 78 74 75 73 79 62 67 68 69 74 79 82 87 88 84 78 45 72 73 70 70 69 71 67 70 68 66 64 62 59 60 61 59 61 64
96 96 90 88 80 72 75 85 87 81 76 63 71 84 72 85 83 92 83 87 94 62 76 74 76 74 74 76 72 64 65 62 62 64 64 64 65 66
76 90 95 95 93 86 77 69 75 63 42 44 67 73 76 80 80 73 85 74 68 77 80 52 49 77 79 75 68 65 65 66 66 69 66 66 68 71
62 74 89 98 99 92 91 82 82 79 65 51 52 52 50 67 64 88 63 73 66 66 64 66 78 73 63 70 76 70 70 69 68 69 70 72 75 77
50 56 71 78 93 100 104 100 94 99 99 95 84 77 68 65 72 65 69 74 69 65 70 62 59 55 67 78 77 77 70 69 68 71 75 77 77 77
44 46 49 56 63 77 90 93 99 92 88 80 74 78 75 74 76 72 69 67 68 67 65 66 59 64 67 61 54 64 71 67 67 71 75 78 80 80
34 39 42 47 54 63 69 78 82 83 83 81 74 72 74 73 77 77 70 70 74 70 70 70 62 61 61 62 57 57 68 70 72 76 78 78 74 68
38 35 36 42 45 44 51 57 66 72 75 78 76 73 73 74 73 75 75 75 73 64 70 65 60 58 60 62 63 63 66 70 72 72 70 67 65 62
Wind_Direction
238 241 244 250 250 250 250 248 250 249 252 252 252 258 263 265 267 269 271 270 272 278 280 285 291 295 306 310 314 314 317 321 324 322 322 324 328 324
236 237 238 242 249 249 250 251 250 253 250 250 251 251 257 263 265 267 269 270 272 276 277 280 288 298 302 307 310 308 310 315 319 322 320 322 326 328
238 236 237 239 244 248 249 249 250 251 252 241 244 246 250 254 258 262 266 270 270 273 276 278 285 293 301 308 313 309 307 303 312 324 325 326 326 326
246 239 237 239 242 245 246 249 249 250 252 245 245 242 244 249 253 256 259 262 262 265 270 273 280 288 298 305 313 321 318 304 308 319 322 328 330 332
243 241 238 238 241 244 246 246 251 250 249 249 247 243 241 244 250 253 256 258 258 258 264 269 278 283 293 302 308 319 325 324 320 320 315 323 320 324
244 242 237 239 242 243 246 246 247 250 250 248 248 246 242 244 247 252 256 256 252 252 260 267 272 279 285 295 299 305 310 318 319 325 331 329 331 333
240 243 239 236 238 241 245 246 246 248 248 249 249 248 246 246 247 249 252 254 252 251 256 262 266 275 282 287 292 298 306 312 320 328 325 326 333 334
234 243 242 240 239 237 240 245 246 247 249 249 248 248 246 246 244 245 249 252 250 252 253 256 263 272 277 280 283 290 296 305 312 312 319 325 328 331
244 249 239 239 240 234 235 240 244 245 246 247 247 246 243 242 243 243 247 250 251 249 252 254 261 266 274 277 279 286 291 298 305 309 314 321 321 323
249 245 240 242 241 234 235 238 242 243 246 247 249 249 242 238 240 242 243 245 248 247 249 252 256 261 267 274 275 280 287 292 299 304 310 312 314 316
248 252 243 247 241 239 241 233 237 243 243 245 246 248 246 239 238 240 243 245 247 247 247 251 251 256 261 267 269 276 280 287 294 300 305 308 310 311
249 252 255 252 238 238 246 237 239 242 244 243 245 245 245 244 240 241 242 245 247 249 249 253 258 263 263 269 268 273 279 283 288 294 299 303 303 306
244 247 252 252 251 259 261 254 254 241 238 241 243 244 242 244 242 242 245 247 249 250 250 253 254 258 264 270 267 270 274 278 284 289 295 297 300 303
243 246 248 253 253 255 261 261 253 255 246 242 243 244 244 244 248 248 248 246 245 246 248 250 253 256 261 266 268 270 272 275 281 287 292 295 298 300
242 244 244 249 250 248 256 258 257 253 246 254 237 250 241 242 244 249 250 250 247 246 248 250 253 256 259 263 265 267 270 275 279 284 287 291 296 299
246 245 242 247 249 246 251 246 253 248 250 254 254 243 231 237 242 246 252 241 250 251 246 244 246 250 254 259 261 265 269 273 279 283 284 290 293 295
248 247 242 243 244 235 238 246 257 260 255 252 241 247 243 235 247 244 248 251 255 253 255 252 246 244 248 252 259 261 268 273 278 279 283 287 291 293
247 246 245 241 243 241 244 240 246 241 250 252 249 245 253 253 252 251 251 250 258 255 266 264 248 253 254 253 255 259 263 267 272 278 280 285 287 289
249 246 244 245 243 244 243 236 239 246 248 250 256 249 253 244 254 241 255 249 253 260 270 265 257 265 258 264 256 256 264 268 272 277 281 283 286 290
251 250 249 250 248 245 246 252 251 252 256 263 267 269 266 267 256 267 261 255 266 270 273 273 257 278 271 265 270 272 271 272 275 278 282 285 287 290
254 249 249 251 253 254 253 253 253 257 260 262 262 265 265 267 269 269 268 266 265 266 260 263 278 284 287 287 283 271 265 270 283 283 283 284 288 292
263 259 250 246 247 250 252 253 255 258 257 256 256 257 258 258 260 263 266 268 271 273 277 280 282 277 280 280 276 270 269 276 278 279 280 282 284 286
257 258 259 253 247 251 253 251 255 258 258 258 259 258 258 260 261 263 264 267 272 271 272 272 271 270 270 269 269 270 269 270 273 276 278 281 283 285
Height
5825 5829 5833 5838 5840 5843 5846 5848 5849 5850 5853 5856 5856 5855 5854 5854 5855 5855 5855 5854 5853 5852 5850 5848 5846 5844 5843 5841 5837 5834 5831 5827 5823 5820 5816 5812 5808 5804
5812 5815 5820 5826 5828 5832 5836 5838 5839 5840 5842 5848 5848 5848 5846 5847 5847 5846 5847 5847 5847 5846 5844 5841 5839 5838 5836 5834 5831 5827 5825 5822 5818 5815 5812 5808 5804 5799
5800 5803 5809 5813 5815 5819 5823 5826 5829 5829 5830 5841 5838 5838 5837 5837 5838 5838 5839 5840 5839 5839 5838 5835 5834 5833 5830 5827 5823 5819 5817 5816 5813 5810 5807 5802 5798 5794
5790 5793 5799 5801 5803 5806 5810 5815 5817 5820 5818 5827 5825 5827 5828 5828 5829 5829 5830 5830 5830 5830 5829 5827 5827 5827 5825 5823 5819 5815 5811 5808 5807 5803 5801 5797 5793 5788
5773 5778 5785 5787 5790 5795 5797 5801 5805 5808 5809 5811 5815 5816 5817 5818 5819 5820 5821 5822 5823 5822 5820 5819 5820 5820 5819 5816 5814 5811 5807 5805 5802 5797 5793 5791 5788 5783
5758 5762 5768 5773 5777 5782 5785 5789 5792 5793 5796 5798 5801 5802 5806 5808 5808 5810 5813 5813 5812 5811 5810 5811 5812 5812 5811 5809 5807 5805 5801 5798 5795 5792 5789 5785 5782 5778
5739 5742 5749 5756 5760 5768 5772 5774 5778 5778 5781 5784 5787 5790 5795 5797 5800 5802 5800 5801 5800 5801 5801 5802 5802 5804 5805 5802 5800 5797 5794 5791 5788 5787 5784 5780 5776 5771
5701 5721 5732 5742 5745 5749 5755 5758 5762 5763 5765 5769 5774 5775 5782 5786 5787 5788 5788 5787 5787 5791 5790 5791 5791 5794 5794 5791 5791 5789 5786 5783 5781 5779 5776 5772 5768 5765
5698 5710 5714 5719 5723 5728 5736 5740 5741 5746 5749 5753 5754 5762 5768 5774 5775 5774 5775 5775 5776 5778 5777 5780 5783 5784 5782 5781 5781 5780 5777 5776 5773 5770 5766 5764 5760 5756
5686 5691 5696 5700 5701 5711 5720 5723 5723 5726 5733 5739 5740 5750 5754 5756 5759 5760 5759 5759 5762 5765 5766 5768 5772 5772 5769 5771 5771 5769 5766 5765 5762 5760 5756 5753 5750 5746
5668 5672 5678 5685 5688 5697 5679 5698 5705 5709 5713 5719 5725 5731 5736 5740 5743 5741 5743 5747 5750 5754 5755 5756 5759 5757 5757 5758 5759 5758 5755 5753 5751 5748 5745 5743 5739 5734
5647 5651 5656 5662 5667 5667 5661 5673 5685 5695 5697 5701 5706 5711 5716 5720 5724 5726 5726 5731 5737 5739 5746 5742 5743 5743 5743 5747 5746 5745 5743 5741 5738 5736 5734 5730 5726 5722
5627 5631 5636 5645 5649 5649 5654 5657 5668 5662 5667 5681 5685 5690 5692 5695 5701 5709 5712 5715 5718 5724 5729 5728 5730 5730 5729 5731 5732 5731 5730 5728 5725 5722 5721 5717 5712 5709
5609 5613 5620 5625 5630 5636 5639 5644 5646 5651 5655 5660 5669 5673 5674 5679 5687 5690 5693 5693 5695 5701 5708 5711 5712 5714 5714 5714 5715 5717 5714 5712 5711 5710 5706 5702 5699 5694
5587 5593 5600 5606 5613 5619 5626 5627 5629 5632 5635 5641 5635 5634 5653 5660 5667 5668 5670 5674 5676 5682 5686 5690 5693 5695 5696 5697 5698 5699 5697 5697 5695 5693 5690 5686 5684 5679
5562 5571 5579 5587 5590 5598 5604 5609 5609 5611 5619 5623 5627 5622 5623 5637 5644 5651 5660 5631 5655 5662 5665 5667 5671 5673 5677 5677 5679 5682 5681 5679 5680 5677 5672 5671 5667 5664
5537 5546 5557 5565 5572 5578 5583 5587 5589 5594 5601 5602 5605 5612 5611 5617 5625 5630 5638 5643 5644 5637 5644 5644 5649 5650 5653 5657 5661 5664 5664 5664 5660 5657 5655 5653 5651 5648
5513 5522 5531 5540 5548 5555 5561 5566 5570 5577 5578 5584 5591 5595 5598 5603 5605 5608 5612 5622 5627 5631 5632 5633 5629 5632 5634 5639 5643 5645 5645 5645 5643 5640 5638 5635 5633 5631
5492 5498 5506 5515 5524 5530 5538 5547 5551 5556 5561 5566 5573 5578 5581 5585 5588 5597 5598 5604 5611 5613 5614 5611 5616 5617 5618 5622 5626 5625 5625 5627 5625 5624 5620 5618 5616 5614
5475 5478 5485 5491 5502 5510 5516 5524 5531 5536 5541 5546 5554 5562 5564 5568 5573 5578 5584 5589 5592 5592 5595 5598 5600 5601 5601 5603 5605 5609 5608 5608 5607 5603 5600 5596 5595 5593
5461 5465 5469 5473 5479 5487 5495 5501 5509 5516 5522 5529 5535 5542 5547 5551 5557 5560 5563 5567 5572 5575 5578 5579 5581 5581 5581 5582 5585 5588 5590 5588 5587 5583 5580 5577 5575 5573
5446 5449 5453 5458 5463 5470 5474 5480 5488 5494 5501 5509 5516 5522 5529 5534 5538 5542 5545 5549 5551 5553 5554 5557 5559 5563 5563 5564 5566 5568 5567 5566 5565 5562 5560 5557 5555 5553
5435 5437 5438 5442 5447 5454 5458 5460 5465 5472 5478 5485 5493 5498 5505 5511 5516 5520 5524 5527 5530 5532 5535 5539 5540 5541 5543 5543 5544 5547 5545 5542 5541 5540 5539 5537 5534 5530